Regional Weather Roundup
Issued by NWS Upton, NY

Current Version | Previous Version | Text Only | Print | Product List | Glossary Off
Versions: 1 2 3 4 5 6 7 8 9 10 11 12 13 14 15 16 17 18 19 20 21 22 23 24 25 26 27 28 29 30 31 32 33 34 35 36 37 38 39 40 41 42 43 44 45 46 47 48 49 50
141 ASUS41 KOKX 091704 RWROKX REGIONAL WEATHER ROUNDUP NATIONAL WEATHER SERVICE NEW YORK NY 1200 PM EST TUE FEB 09 2016 NOTE: "FAIR" INDICATES FEW OR NO CLOUDS BELOW 12,000 FEET WITH NO SIGNIFICANT WEATHER AND/OR OBSTRUCTIONS TO VISIBILITY. NYZ071-072-176-178-NJZ106-104-091800- NEW YORK CITY METRO AREA CITY SKY/WX TMP DP RH WIND PRES REMARKS CENTRAL PARK PTSUNNY 33 23 66 CALM 29.61F LAGUARDIA APRT MOSUNNY 32 22 66 NE8G17 29.60F WCI 25 KENNEDY INTL MOSUNNY 33 25 72 NE7 29.62F WCI 27 NEWARK/LIBERTY CLOUDY 32 25 75 N12 29.60F WCI 23 BRNX BOT. GARD N/A 34 23 64 NW8 29.62R WCI 27 TETERBORO MOSUNNY 32 21 64 N5 29.59F WCI 27 $$ NYZ177-179-078>081-091800- LONG ISLAND NEW YORK CITY SKY/WX TMP DP RH WIND PRES REMARKS FARMINGDALE CLOUDY 30 23 75 NE10 29.61S WCI 21 ISLIP CLOUDY 29 23 78 NE10 29.59F WCI 20 SHIRLEY PTSUNNY 31 24 75 N7 29.61F WCI 24 RIVERHEAD N/A 32 23 69 E3 29.59F WESTHAMPTON CLOUDY 29 26 89 N10 29.62F WCI 20 EAST HAMPTON CLOUDY 28 25 86 VRB5 29.61F WCI 23 MONTAUK POINT N/A 30 25 81 N8 29.62F WCI 22 $$ NYZ052-065-067-091800- HUDSON VALLEY CITY SKY/WX TMP DP RH WIND PRES REMARKS WHITE PLAINS SUNNY 30 19 63 NW7 29.57F WCI 23 NEWBURGH PTSUNNY 28 21 74 CALM 29.60F MONTGOMERY SUNNY 29 21 72 VRB3 29.58F POUGHKEEPSIE FLURRIES 29 19 66 NE6 29.60F WCI 23 ALBANY CLOUDY 26 18 71 S6 29.63F WCI 19 $$ NJZ001-105-106-008-010-013-015-019>022-104-091800- NEW JERSEY CITY SKY/WX TMP DP RH WIND PRES REMARKS NEWARK/LIBERTY CLOUDY 32 25 75 N12 29.60F WCI 23 TETERBORO MOSUNNY 32 21 64 N5 29.59F WCI 27 CALDWELL CLOUDY 30 22 72 E5 29.60F WCI 25 MORRISTOWN NOT AVBL SOMERVILLE CLOUDY 33 25 72 VRB3 29.58F SUSSEX CLOUDY 28 22 78 CALM 29.58F ANDOVER N/A 28 22 78 N3 29.58F TRENTON CLOUDY 32 27 81 NE8 29.59F WCI 25 MILLVILLE LGT RAIN 39 35 86 NE8 29.56F WCI 33 ATLANTIC CITY CLOUDY 39 28 64 NE14 29.56F WCI 31 WRIGHTSTOWN CLOUDY 35 35 99 E10 29.56F WCI 27 TOMS RIVER CLOUDY 34 28 80 E12 29.59F WCI 25 BELMAR CLOUDY 30 21 69 NE8 29.59S WCI 23 $$ PAZ047>061-062-071-091800- EASTERN PENNSYLVANIA CITY SKY/WX TMP DP RH WIND PRES REMARKS PHILADELPHIA CLOUDY 35 29 78 E8 29.60F WCI 29 ALLENTOWN CLOUDY 32 24 72 E3 29.58F SCRANTON CLOUDY 33 24 69 SW6 29.53F WCI 28 $$ CTZ002-004>006-009-010-012-RIZ004-006-007-MAZ004-011-015-091800- SOUTHERN NEW ENGLAND IN CT CITY SKY/WX TMP DP RH WIND PRES REMARKS BRADLEY INTL CLOUDY 26 17 68 NE7 29.62F WCI 18 HARTFORD FLURRIES 26 18 71 N6 29.64F WCI 19 DANBURY PTSUNNY 28 17 63 N6 29.59F WCI 22 WTRBRY/OXFORD NOT AVBL BRIDGEPORT SUNNY 31 21 66 VRB7 29.62F WCI 24 MERIDEN CLOUDY 27 18 69 NE9 29.63F WCI 18 NEW HAVEN PTSUNNY 28 20 71 N9 29.62F WCI 19 CHESTER CLOUDY 28 21 74 NE6 29.61F WCI 22 GROTON CLOUDY 30 23 75 N9 29.61F WCI 22 WILLIMANTIC CLOUDY 29 19 66 N3 29.62F IN RI CITY SKY/WX TMP DP RH WIND PRES REMARKS PROVIDENCE CLOUDY 27 20 75 NE12 29.63F WCI 17 BLOCK ISLAND CLOUDY 30 27 86 NE9 29.59F WCI 22 WESTERLY CLOUDY 31 23 72 VRB7 29.62F WCI 24 IN MA CITY SKY/WX TMP DP RH WIND PRES REMARKS BOSTON CLOUDY 25 18 74 N7 29.65F WCI 17 WORCESTER CLOUDY 22 16 78 NE7 29.57F WCI 13 WESTFIELD PTSUNNY 25 16 68 NE8 29.61F WCI 16 PROVINCETOWN CLOUDY 34 24 67 N6 29.62F WCI 29 NANTUCKET PTSUNNY 34 28 79 N13 29.58F WCI 25 $$ ANZ330-335-338-340-345-350-353-355-091800- COASTAL MARINE OBSERVATIONS STATION/POSITION TIME SKY/WX TEMP WIND PRES VSBY WAVE AIR SEA DIR/SP/G HT/PER (UTC) (F) (DEG/KT/KT) (MB) (MI) (FT/S) NY HARB ENTRANCE 1550 32 43 30/ 14/ 17 1002.0 6/14 4S FIRE IS NOT AVBL 20S FIRE ISLAND 1550 34 44 50/ 17/ 21 1001.9 6/ 9 GREAT SOUTH BAY NOT AVBL 23SW MTP 1650 32 46 20/ 16/ 17 1001.4 8/12 HUDSON CANYON 1550 38 49 1001.1 9/11 KINGS POINT 1600 29 38 60/ 8/ 12 1002.8 EXECUTION ROCKS NOT AVBL CENTRAL LI SOUND 1615 28 30/ 8/ 10 N/A 1/ 2 EASTERN LI SOUND 1600 31 42 360/ 8/ 12 N/A ROBBINS REEF 1600 30 10/ 11/ 13 1002.1 $$ >>>>>>>>>>>>>>>>>>>>>>>>>>>> KEY <<<<<<<<<<<<<<<<<<<<<<<<<<< > < > SKY/WX - SKY CONDITION/PRESENT WEATHER < > TMP - TEMPERATURE IN FAHRENHEIT < > DP - DEWPOINT IN FAHRENHEIT < > RH - RELATIVE HUMIDITY IN PERCENT < > WIND - DIRECTION AND SPEED IN MPH < > PRES - MEAN SEA LEVEL PRESSURE IN INCHES OF HG < > WCI - WIND CHILL INDEX < > VSB - VISIBILITY IN MILES < > HX - HEAT INDEX < > TC - TEMPERATURE IN CELSIUS < > VRB - VARIABLE WIND DIRECTION < > < >>>>>>>>>>>>>>>>>>>>>>>>>>>> KEY <<<<<<<<<<<<<<<<<<<<<<<<<<<

USA.gov is the U.S. government's official web portal to all federal, state and local government web resources and services.